FW4175 Weather Reports


Display with metric or nautical units.
time (UTC)temp
F
wind
direction
speed
MPH
gust
MPH
rain 1hr
in
rain 24hr
in
rain mn
in
humidity
%
barometer
mb
20260831231004 83 174 3.0 7.0 0.00 0.14 0.14 86 1015.5
20260831230459 83 156 2.0 6.0 0.00 0.14 0.14 87 1015.5
20260831225953 82 209 3.0 5.0 0.00 0.14 0.14 86 1015.5
20260831225449 82 194 3.0 10.0 0.00 0.14 0.14 86 1015.6
20260831224943 83 199 5.0 6.0 0.00 0.14 0.14 85 1015.5
20260831224443 83 210 4.0 6.0 0.00 0.14 0.14 84 1015.5
20260831223938 84 208 3.0 9.0 0.00 0.14 0.14 82 1015.5
20260831223433 84 170 4.0 8.0 0.00 0.14 0.14 83 1015.4
20260831222930 84 195 4.0 9.0 0.00 0.14 0.14 83 1015.4
20260831222426 84 163 4.0 6.0 0.00 0.14 0.14 83 1015.5
20260831221920 83 195 8.0 8.0 0.00 0.14 0.14 84 1015.4
20260831221416 83 179 3.0 8.0 0.00 0.14 0.14 85 1015.3
20260831220911 83 179 3.0 6.0 0.00 0.14 0.14 84 1015.2
20260831220407 84 199 2.0 8.0 0.00 0.14 0.14 85 1015.4
20260831215901 83 180 5.0 7.0 0.00 0.14 0.14 84 1015.4
20260831215352 82 176 3.0 9.0 0.00 0.14 0.14 85 1015.1
20260831214848 80 186 7.0 8.0 0.00 0.14 0.14 88 1015.2
20260831214345 80 211 3.0 12.0 0.00 0.14 0.14 89 1015.3
20260831213840 80 167 6.0 10.0 0.00 0.14 0.14 89 1015.3
20260831213337 80 182 3.0 9.0 0.00 0.14 0.14 90 1015.2
20260831212831 79 175 4.0 9.0 0.00 0.14 0.14 90 1015.4
20260831212328 78 173 3.0 8.0 0.00 0.14 0.14 91 1015.2
20260831211827 78 168 3.0 8.0 0.00 0.14 0.14 92 1015.3
20260831211322 78 236 4.0 7.0 0.00 0.14 0.14 91 1015.1
20260831210821 78 201 5.0 7.0 0.00 0.14 0.14 91 1015.2
20260831210317 78 191 4.0 9.0 0.00 0.14 0.14 91 1014.9
20260831205817 78 180 5.0 13.0 0.00 0.14 0.14 90 1014.7
20260831205313 78 152 5.0 13.0 0.00 0.14 0.14 91 1014.4
20260831204808 77 137 3.0 6.0 0.00 0.14 0.14 92 1013.7
20260831204307 77 89 2.0 7.0 0.00 0.14 0.14 91 1014.4
20260831203806 77 201 4.0 5.0 0.00 0.14 0.14 91 1015.3
20260831203255 77 185 4.0 8.0 0.00 0.14 0.14 90 1015.3
20260831202753 77 183 2.0 4.0 0.00 0.14 0.14 91 1014.9
20260831202248 77 170 4.0 11.0 0.00 0.14 0.14 90 1015.1
20260831201743 77 154 5.0 9.0 0.02 0.14 0.14 89 1015.2
20260831201242 78 173 4.0 9.0 0.02 0.14 0.14 89 1015.5
20260831200737 79 181 4.0 15.0 0.00 0.13 0.13 83 1015.7
20260831200232 80 178 7.0 23.0 0.00 0.13 0.13 81 1015.7
20260831195728 80 201 10.0 16.0 0.00 0.13 0.13 80 1015.8
20260831195224 81 180 7.0 18.0 0.00 0.13 0.13 79 1015.6
20260831194718 81 209 6.0 11.0 0.00 0.13 0.13 78 1015.5
20260831194214 82 209 8.0 12.0 0.00 0.13 0.13 77 1015.3
20260831193707 82 191 5.0 13.0 0.00 0.13 0.13 77 1015.3
20260831193203 82 193 6.0 13.0 0.00 0.13 0.13 77 1015.3
20260831192658 82 182 6.0 13.0 0.00 0.13 0.13 75 1015.5
20260831192153 83 176 7.0 12.0 0.00 0.13 0.13 74 1015.5
20260831191649 83 165 9.0 22.0 0.00 0.13 0.13 74 1015.5
20260831191145 83 146 6.0 28.0 0.00 0.13 0.13 72 1015.3
20260831190640 84 167 10.0 12.0 0.00 0.13 0.13 71 1015.3
20260831190139 85 196 9.0 15.0 0.00 0.13 0.13 70 1015.1
20260831185634 84 176 10.0 24.0 0.00 0.13 0.13 69 1015.2
20260831185130 84 160 7.0 19.0 0.00 0.13 0.13 72 1015.2
20260831184630 84 141 8.0 22.0 0.00 0.13 0.13 71 1015.4
20260831184126 85 182 5.0 13.0 0.00 0.13 0.13 70 1015.3
20260831183625 86 191 8.0 13.0 0.00 0.13 0.13 68 1015.6
20260831183124 85 150 9.0 16.0 0.00 0.13 0.13 70 1015.6
20260831182623 84 163 6.0 13.0 0.00 0.13 0.13 71 1015.5
20260831182120 84 186 9.0 20.0 0.00 0.13 0.13 69 1015.3
20260831181619 84 179 7.0 16.0 0.00 0.13 0.13 70 1015.2
20260831181114 84 204 17.0 17.0 0.00 0.13 0.13 71 1015.3
20260831180609 84 217 6.0 13.0 0.00 0.13 0.13 70 1015.3
20260831180104 84 179 8.0 17.0 0.00 0.13 0.13 70 1015.4
20260831175559 83 160 8.0 17.0 0.00 0.13 0.13 73 1015.5
20260831175056 83 153 4.0 14.0 0.00 0.13 0.13 73 1015.5
20260831174550 83 192 8.0 13.0 0.00 0.13 0.13 70 1015.4
20260831174044 82 149 7.0 14.0 0.00 0.13 0.13 73 1015.4
20260831173543 82 183 5.0 14.0 0.00 0.13 0.13 74 1015.7
20260831173039 81 169 7.0 14.0 0.00 0.13 0.13 74 1015.8
20260831172534 81 163 15.0 16.0 0.00 0.13 0.13 73 1015.6
20260831172029 81 191 6.0 14.0 0.00 0.13 0.13 74 1015.5
20260831171525 81 141 5.0 14.0 0.00 0.13 0.13 75 1015.6
20260831171021 80 141 7.0 15.0 0.00 0.13 0.13 76 1015.8
20260831170517 80 159 3.0 17.0 0.00 0.13 0.13 74 1015.6
20260831170015 81 165 6.0 18.0 0.00 0.13 0.13 72 1015.9
20260831165514 82 188 16.0 16.0 0.00 0.13 0.13 72 1016.2
20260831165012 81 161 10.0 19.0 0.00 0.13 0.13 74 1016.0
20260831164507 80 152 8.0 23.0 0.00 0.13 0.13 73 1016.2
20260831164003 80 168 9.0 20.0 0.00 0.13 0.13 75 1016.1
20260831163457 80 146 13.0 17.0 0.00 0.13 0.13 75 1016.1
20260831162956 79 193 7.0 12.0 0.00 0.13 0.13 75 1016.3
20260831162452 79 161 7.0 17.0 0.00 0.13 0.13 77 1016.6
20260831161949 79 158 7.0 20.0 0.00 0.13 0.13 76 1016.4
20260831161446 79 166 12.0 17.0 0.00 0.13 0.13 76 1016.4
20260831160942 79 196 5.0 13.0 0.00 0.13 0.13 77 1016.3
20260831160441 78 145 8.0 17.0 0.00 0.13 0.13 79 1016.3
20260831155936 78 150 10.0 17.0 0.00 0.13 0.13 79 1016.7
20260831155431 78 182 12.0 13.0 0.00 0.13 0.13 78 1016.6
20260831154926 78 174 4.0 14.0 0.00 0.13 0.13 81 1016.8
20260831154417 77 168 11.0 21.0 0.00 0.13 0.13 83 1016.8
20260831153915 77 166 12.0 15.0 0.00 0.13 0.13 83 1016.7
20260831153411 75 156 5.0 9.0 0.00 0.13 0.13 86 1016.6
20260831152907 75 148 5.0 15.0 0.00 0.13 0.13 86 1016.6
20260831152403 75 134 12.0 17.0 0.00 0.13 0.13 87 1016.4
20260831151858 74 142 9.0 18.0 0.00 0.13 0.13 87 1016.7
20260831151356 74 147 5.0 10.0 0.00 0.13 0.13 88 1016.8
20260831150852 74 123 5.0 11.0 0.00 0.13 0.13 89 1016.9
20260831150348 74 152 4.0 16.0 0.00 0.13 0.13 88 1016.7
20260831145847 73 139 6.0 14.0 0.00 0.13 0.13 89 1016.7
20260831145343 73 149 8.0 15.0 0.00 0.13 0.13 89 1016.8
20260831144839 73 122 8.0 16.0 0.00 0.13 0.13 89 1016.9
20260831144334 73 116 7.0 9.0 0.00 0.13 0.13 90 1016.6
20260831143829 73 147 9.0 13.0 0.00 0.13 0.13 90 1016.7
20260831143324 73 154 5.0 11.0 0.00 0.13 0.13 91 1016.4
20260831142819 73 136 3.0 13.0 0.00 0.13 0.13 91 1016.6
20260831142314 73 122 3.0 9.0 0.00 0.13 0.13 91 1016.4
20260831141809 73 148 8.0 16.0 0.00 0.13 0.13 91 1016.6
20260831141303 73 144 8.0 13.0 0.00 0.13 0.13 92 1016.8
20260831140758 73 132 3.0 19.0 0.00 0.13 0.13 92 1016.7
20260831140252 73 144 5.0 18.0 0.00 0.13 0.13 91 1016.6
20260831135750 73 173 6.0 9.0 0.00 0.13 0.13 92 1016.7
20260831135246 72 171 4.0 14.0 0.00 0.13 0.13 93 1016.9
20260831134742 71 127 5.0 10.0 0.00 0.13 0.13 93 1016.9
20260831134238 71 107 2.0 6.0 0.00 0.13 0.13 93 1016.8
20260831133737 71 155 4.0 7.0 0.00 0.13 0.13 93 1017.1
20260831133231 71 161 2.0 6.0 0.02 0.13 0.13 93 1017.0
20260831132726 70 128 3.0 9.0 0.02 0.13 0.13 94 1016.8
20260831132226 71 149 11.0 12.0 0.00 0.13 0.13 93 1017.1
20260831131721 71 117 5.0 8.0 0.00 0.13 0.13 93 1017.0
20260831131218 71 61 2.0 17.0 0.00 0.13 0.13 92 1017.0
20260831130712 71 141 3.0 5.0 0.00 0.13 0.13 94 1017.3
20260831130208 70 100 1.0 5.0 0.00 0.13 0.13 95 1017.2
20260831125706 70 89 0.0 6.0 0.00 0.13 0.13 95 1017.3
20260831125203 70 107 0.0 3.0 0.02 0.13 0.13 95 1017.3
20260831124657 70 74 1.0 7.0 0.02 0.13 0.13 96 1017.2
20260831124153 70 114 0.0 3.0 0.00 0.13 0.13 96 1017.2
20260831123653 69 91 1.0 4.0 0.00 0.13 0.13 97 1017.2
20260831123151 69 124 1.0 4.0 0.02 0.13 0.13 97 1017.0
20260831122646 69 123 1.0 4.0 0.02 0.13 0.13 97 1016.8
20260831122143 69 139 3.0 5.0 0.00 0.12 0.12 98 1016.8
20260831121641 69 119 1.0 3.0 0.00 0.12 0.12 98 1017.0
20260831121138 69 74 0.0 3.0 0.00 0.12 0.12 98 1017.1
20260831120633 69 111 1.0 4.0 0.00 0.12 0.12 98 1017.2
20260831120128 69 142 0.0 3.0 0.00 0.12 0.12 98 1017.0
20260831115624 69 133 0.0 2.0 0.00 0.12 0.12 98 1016.8
20260831115119 70 123 0.0 4.0 0.00 0.12 0.12 97 1017.1
20260831114618 70 138 3.0 6.0 0.00 0.12 0.12 97 1016.9
20260831114113 70 121 1.0 7.0 0.00 0.12 0.12 96 1016.9
20260831113613 70 151 5.0 9.0 0.02 0.12 0.12 95 1016.9
20260831113108 69 156 7.0 11.0 0.33 0.12 0.12 96 1017.0
20260831112607 69 147 6.0 9.0 0.40 0.12 0.12 97 1017.2
20260831112102 69 148 1.0 5.0 0.19 0.07 0.07 97 1017.3
20260831111558 70 263 5.0 7.0 0.14 0.05 0.05 96 1017.5
20260831111054 70 113 0.0 6.0 0.17 0.03 0.03 95 1017.3
20260831110549 71 277 2.0 8.0 0.12 0.02 0.02 94 1017.2
20260831110044 71 173 4.0 13.0 0.02 0.00 0.00 92 1017.3
20260831105543 72 210 7.0 7.0 0.00 0.00 0.00 89 1017.1
20260831105038 72 211 4.0 6.0 0.00 0.00 0.00 88 1017.1
20260831104534 72 196 4.0 6.0 0.00 0.00 0.00 88 1016.9
20260831104030 72 176 2.0 3.0 0.00 0.00 0.00 88 1016.8
20260831103525 72 216 2.0 6.0 0.00 0.00 0.00 88 1016.7
20260831103021 73 269 0.0 3.0 0.00 0.00 0.00 88 1016.4
20260831102515 73 181 2.0 5.0 0.00 0.00 0.00 88 1016.2
20260831102010 73 190 1.0 4.0 0.00 0.00 0.00 89 1016.3
20260831101505 73 235 3.0 4.0 0.00 0.00 0.00 89 1016.1
20260831101001 73 212 2.0 4.0 0.00 0.00 0.00 89 1015.7
20260831100457 73 164 2.0 5.0 0.00 0.00 0.00 88 1015.9
20260831095952 73 192 4.0 8.0 0.00 0.00 0.00 88 1016.0
20260831095451 73 137 3.0 6.0 0.00 0.00 0.00 88 1015.8
20260831094946 73 137 6.0 8.0 0.00 0.00 0.00 88 1015.7
20260831094442 73 177 3.0 6.0 0.00 0.00 0.00 89 1015.9
20260831093938 73 143 3.0 4.0 0.00 0.00 0.00 89 1015.8
20260831093432 73 155 1.0 5.0 0.00 0.00 0.00 89 1015.9
20260831092929 73 166 4.0 10.0 0.00 0.00 0.00 89 1016.2
20260831092424 73 134 3.0 7.0 0.00 0.00 0.00 90 1015.9
20260831091914 73 152 4.0 7.0 0.00 0.00 0.00 90 1016.0
20260831091409 73 153 4.0 9.0 0.00 0.00 0.00 91 1015.8
20260831090904 73 111 1.0 10.0 0.00 0.00 0.00 91 1016.0
20260831090400 73 128 2.0 6.0 0.00 0.00 0.00 92 1015.8
20260831085856 73 129 3.0 5.0 0.00 0.00 0.00 91 1016.1
20260831085350 73 137 3.0 5.0 0.00 0.00 0.00 92 1015.8
20260831084844 73 150 0.0 7.0 0.00 0.00 0.00 92 1015.6
20260831084341 72 150 2.0 3.0 0.00 0.00 0.00 93 1016.1
20260831083837 72 113 1.0 4.0 0.00 0.00 0.00 93 1016.1
20260831083332 72 132 3.0 6.0 0.00 0.00 0.00 93 1016.0
20260831082831 72 131 0.0 5.0 0.00 0.00 0.00 93 1016.2
20260831082326 73 125 0.0 4.0 0.00 0.00 0.00 93 1016.2
20260831081822 73 89 0.0 4.0 0.00 0.00 0.00 93 1016.4
20260831081317 73 164 2.0 3.0 0.00 0.00 0.00 93 1016.1
20260831080813 73 124 0.0 3.0 0.00 0.00 0.00 93 1016.3
20260831080308 73 138 2.0 3.0 0.00 0.00 0.00 93 1016.3
20260831075803 73 141 4.0 5.0 0.00 0.00 0.00 93 1016.1
20260831075258 72 128 3.0 7.0 0.00 0.00 0.00 94 1016.0
20260831074758 72 146 1.0 2.0 0.00 0.00 0.00 94 1016.6
20260831074252 72 113 0.0 1.0 0.00 0.00 0.00 94 1016.2
20260831073748 72 141 1.0 2.0 0.00 0.00 0.00 94 1016.7
20260831073246 72 150 2.0 3.0 0.00 0.00 0.00 94 1016.8
20260831072742 73 129 0.0 1.0 0.00 0.00 0.00 93 1016.6
20260831072238 73 142 0.0 0.0 0.00 0.00 0.00 92 1016.9
20260831071738 73 205 0.0 2.0 0.00 0.00 0.00 92 1016.6
20260831071232 73 205 0.0 2.0 0.00 0.00 0.00 91 1016.7
20260831070727 73 154 0.0 4.0 0.00 0.00 0.00 91 1016.9
20260831070221 73 171 1.0 2.0 0.00 0.00 0.00 91 1016.7
20260831065720 73 125 1.0 3.0 0.00 0.00 0.00 91 1016.8
20260831065219 74 136 2.0 5.0 0.00 0.00 0.00 91 1016.7
20260831064714 74 155 3.0 5.0 0.00 0.00 0.00 91 1016.8
20260831064209 74 215 0.0 8.0 0.00 0.00 0.00 90 1016.9
20260831063705 74 152 4.0 5.0 0.00 0.00 0.00 90 1016.7
20260831063200 74 128 4.0 6.0 0.00 0.00 0.00 91 1016.6
20260831062654 74 136 2.0 4.0 0.00 0.00 0.00 90 1016.7
20260831062154 74 79 2.0 10.0 0.00 0.00 0.00 91 1016.8
20260831061651 74 123 3.0 5.0 0.00 0.00 0.00 92 1016.9
20260831061148 74 18 1.0 7.0 0.00 0.00 0.00 92 1016.7
20260831060638 74 146 0.0 5.0 0.00 0.00 0.00 92 1016.8
20260831060138 74 134 7.0 8.0 0.00 0.00 0.00 92 1016.8
20260831055637 74 131 1.0 7.0 0.00 0.00 0.00 92 1016.8
20260831055133 74 140 4.0 6.0 0.00 0.00 0.00 92 1016.6
20260831054632 74 143 5.0 6.0 0.00 0.00 0.00 92 1016.9
20260831054132 74 136 0.0 6.0 0.00 0.00 0.00 92 1016.6
20260831053626 74 111 1.0 7.0 0.00 0.00 0.00 93 1017.0
20260831053120 74 162 4.0 6.0 0.00 0.00 0.00 93 1016.8
20260831052619 74 99 2.0 8.0 0.00 0.00 0.00 93 1016.6
20260831052118 73 152 3.0 6.0 0.00 0.00 0.00 94 1016.9
20260831051617 73 93 1.0 5.0 0.00 0.00 0.00 94 1017.0
20260831051115 73 138 5.0 5.0 0.00 0.00 0.00 95 1017.0
20260831050610 73 70 0.0 3.0 0.00 0.00 0.00 95 1016.9
20260831050109 73 109 2.0 7.0 0.00 0.00 0.00 95 1016.8
20260831045608 73 126 3.0 8.0 0.00 0.30 0.30 96 1016.8
20260831045104 73 34 0.0 4.0 0.00 0.30 0.30 96 1016.7
20260831044559 73 138 5.0 7.0 0.00 0.30 0.30 97 1016.4
20260831044054 73 117 4.0 8.0 0.00 0.30 0.30 97 1016.4
20260831043549 73 147 2.0 4.0 0.00 0.30 0.30 98 1016.8
20260831043044 73 114 2.0 4.0 0.00 0.30 0.30 98 1016.9
20260831042544 73 120 1.0 4.0 0.00 0.30 0.30 97 1016.8
20260831042039 73 103 2.0 6.0 0.00 0.30 0.30 97 1016.9
20260831041534 73 106 2.0 4.0 0.00 0.30 0.30 97 1017.2
20260831041033 73 111 2.0 3.0 0.02 0.30 0.30 97 1017.3
20260831040528 73 132 2.0 4.0 0.00 0.30 0.30 97 1017.0
20260831040027 73 135 3.0 8.0 0.00 0.30 0.30 97 1017.0
20260831035520 73 132 7.0 8.0 0.00 0.30 0.30 97 1017.2
20260831035015 72 114 4.0 6.0 0.00 0.30 0.30 98 1017.2
20260831034509 72 140 3.0 9.0 0.00 0.30 0.30 98 1017.3
20260831034004 72 153 3.0 5.0 0.00 0.30 0.30 98 1017.4
20260831033454 72 54 0.0 2.0 0.00 0.30 0.30 97 1017.5
20260831032949 73 357 1.0 2.0 0.00 0.30 0.30 97 1017.4
20260831032449 73 330 0.0 3.0 0.00 0.30 0.30 96 1017.6
20260831031945 73 54 2.0 3.0 0.00 0.30 0.30 95 1017.6
20260831031444 73 352 2.0 3.0 0.00 0.30 0.30 95 1017.8
20260831030944 74 149 0.0 3.0 0.00 0.30 0.30 94 1017.9
20260831030443 73 174 3.0 5.0 0.00 0.30 0.30 94 1017.9
20260831025941 74 171 2.0 4.0 0.00 0.30 0.30 94 1017.8
20260831025440 74 169 0.0 2.0 0.00 0.30 0.30 94 1017.8
20260831024937 74 224 0.0 2.0 0.00 0.30 0.30 94 1017.9
20260831024436 74 269 0.0 4.0 0.00 0.30 0.30 93 1017.8
20260831023931 74 161 4.0 11.0 0.00 0.30 0.30 93 1017.8
20260831023429 74 191 5.0 8.0 0.00 0.30 0.30 93 1017.9
20260831022925 74 154 4.0 11.0 0.00 0.30 0.30 93 1017.3
20260831022423 74 153 5.0 6.0 0.00 0.30 0.30 93 1017.4
20260831021923 74 158 3.0 10.0 0.00 0.30 0.30 93 1017.5
20260831021418 74 199 2.0 6.0 0.00 0.30 0.30 93 1017.6
20260831020914 74 155 4.0 6.0 0.00 0.30 0.30 93 1017.7
20260831020413 74 170 3.0 8.0 0.00 0.30 0.30 93 1017.8
20260831015908 74 169 3.0 7.0 0.00 0.30 0.30 93 1017.7
20260831015404 73 188 4.0 8.0 0.00 0.30 0.30 94 1017.7
20260831014858 73 188 3.0 7.0 0.00 0.30 0.30 94 1017.7
20260831014353 73 229 3.0 5.0 0.00 0.30 0.30 94 1017.5
20260831013849 73 211 3.0 6.0 0.00 0.30 0.30 94 1017.5
20260831013344 73 156 2.0 8.0 0.00 0.30 0.30 94 1017.7
20260831012838 73 148 8.0 8.0 0.00 0.30 0.30 95 1017.5
20260831012334 73 140 4.0 11.0 0.00 0.30 0.30 95 1017.3
20260831011833 73 156 4.0 8.0 0.00 0.30 0.30 95 1017.4
20260831011329 73 189 5.0 7.0 0.00 0.30 0.30 95 1017.7
20260831010824 73 189 4.0 8.0 0.00 0.30 0.30 95 1017.4
20260831010324 73 148 4.0 10.0 0.00 0.30 0.30 94 1017.5
20260831005820 73 178 6.0 10.0 0.00 0.30 0.30 94 1017.4
20260831005315 73 156 4.0 7.0 0.00 0.30 0.30 95 1017.4
20260831004810 73 145 4.0 7.0 0.00 0.30 0.30 96 1016.9
20260831004306 73 161 4.0 7.0 0.00 0.30 0.30 95 1017.0
20260831003802 73 158 4.0 11.0 0.00 0.30 0.30 95 1017.2
20260831003258 73 183 2.0 8.0 0.00 0.30 0.30 95 1017.4
20260831002757 73 191 6.0 13.0 0.00 0.30 0.30 96 1017.4
20260831002256 73 170 7.0 13.0 0.00 0.30 0.30 96 1017.0
20260831001752 73 149 7.0 13.0 0.02 0.30 0.30 97 1017.1
20260831001247 72 155 6.0 8.0 0.02 0.30 0.30 98 1016.8
20260831000744 72 156 3.0 9.0 0.00 0.29 0.29 97 1016.4
20260831000241 72 148 3.0 7.0 0.00 0.29 0.29 98 1016.3
20260830235737 72 174 5.0 6.0 0.00 0.29 0.29 97 1016.7
20260830235232 72 144 4.0 8.0 0.00 0.29 0.29 97 1016.7
20260830234727 72 130 4.0 9.0 0.00 0.29 0.29 97 1016.8
20260830234224 72 128 1.0 8.0 0.00 0.29 0.29 97 1016.8
20260830233719 72 130 1.0 7.0 0.00 0.29 0.29 97 1016.9
20260830233214 72 152 3.0 9.0 0.00 0.29 0.29 96 1016.9
20260830232710 72 164 2.0 7.0 0.00 0.29 0.29 96 1017.4
20260830232205 72 110 1.0 6.0 0.00 0.29 0.29 96 1017.1
20260830231702 73 150 4.0 7.0 0.00 0.29 0.29 95 1017.4
20260830231201 73 155 4.0 9.0 0.00 0.29 0.29 95 1017.4